X

Important NEWS



New Hub Active

Miami is our new hub! Old members can request transfer via hr@dlxairways.net

Thank you very much and have nice flight.


Deluxe Airways.

X

Tours



Hello again, we created one nice test tour for all pilots to attend. also this is ment to be testing of our tour system

Available Tours

If you find some issues please inform us.

Thank you very much and have nice flight.


Deluxe Airways.

 METAR AND TAF INFORMATION
ArrayMETAR FOR LPFR
24398277 4 LPFR 250530Z 27008KT 9999 FEW014 14/12 Q1014 LPFR 2019-04-25T05:30:00Z 37.02 -7.97 14.0 12.0 270 8 6.21 29.940945 VFR METAR 4.0 LPFR 250500Z 26010KT 9999 FEW012 14/12 Q1013 LPFR 2019-04-25T05:00:00Z 37.02 -7.97 14.0 12.0 260 10 6.21 29.911417 VFR METAR 4.0 LPFR 250430Z 26012KT 9999 FEW012 15/13 Q1013 LPFR 2019-04-25T04:30:00Z 37.02 -7.97 15.0 13.0 260 12 6.21 29.911417 VFR METAR 4.0

 AIRPORT MAP

 RUNWAY INFORMATION
Runway 10 Runway length 8169 ft Runway width 148 ft
Runway elevation 24 ft Runway displaced threshold 148 ft Runway heading 100
Runway 28 Runway length 8169 ft Runway width 148 ft
Runway elevation 18 ft Runway displaced threshold 148 ft Runway heading 280

 AIRPORT FREQUENCIES
Type APP Name APP Frequency 119.4 MHZ
Type ATIS Name ATIS Frequency 124.2 MHZ
Type GND Name GND Frequency 118.575 MHZ
Type TWR Name TWR Frequency 118.2 MHZ

 AIRPORT NEAR NAVIGATION AIDS
Type NDB Name Faro Frequency 332 KHZ
Type VOR-DME Name Faro Frequency 112800 KHZ



Powered by Virtual Airlines Manager [v2.6.2]

Template code change by DeluxeAir